User: anonymous   Login
Location: Vale
(35.4830°N, 81.3830°W)
Time: 16:44:47
(UTC-04:00)
Language:

Oscar 11 - Orbit

View from above orbital plane
View from above orbital plane
View from above satellite
View from above satellite

Ground track
Ground track

The orbit data is extracted from the following two-line orbital elements,

1 14781U 84021B   15090.47404601  .00001351  00000-0  17570-3 0  9990
2 14781 097.8106 149.4395 0007784 333.4568 026.6245 14.82258112670515
Epoch (UTC): 31 March 2015 11:22:37
Eccentricity: 0.0007784
inclination: 97.8106°
perigee height: 617 km
apogee height: 627 km
right ascension of ascending node: 149.4395°
argument of perigee: 333.4568°
revolutions per day: 14.82258112
mean anomaly at epoch: 26.6245°
orbit number at epoch: 67051

The dashed part of the orbit path shows where the satellite is in the earth's shadow,  

DLR